This demonstration page uses our WeatherBlox Daily Observations layout. Learn more.

Left ArrowRight Arrow

Hourly Observations for October 6, 2016

Temp ( °F °C ) Dew Point ( °F °C ) Humidity (%) Winds ( mph kmh ) Pressure ( in mb ) Visibility ( mi km ) Precip ( " mm )
12:15 am 00:15 Clear 54 12 54 12 100 100 N N/A 30.30 1026 10 16 N/A
12:35 am 00:35 Clear 54 12 54 12 100 100 N N/A 30.33 1027 10 16 N/A
12:55 am 00:55 Clear 52 11 52 11 100 100 NNW 5 7 30.33 1027 10 16 N/A
1:15 am 01:15 Clear 54 12 54 12 100 100 N 3 6 30.33 1027 10 16 N/A
1:35 am 01:35 Clear 52 11 52 11 100 100 NNW 3 6 30.33 1027 10 16 N/A
1:55 am 01:55 Clear 52 11 52 11 100 100 N 3 6 30.33 1027 10 16 N/A
2:15 am 02:15 Clear 54 12 54 12 100 100 N N/A 30.33 1027 10 16 N/A
2:35 am 02:35 Clear 54 12 54 12 100 100 N N/A 30.33 1027 10 16 N/A
2:55 am 02:55 Clear 54 12 54 12 100 100 N N/A 30.30 1026 10 16 N/A
3:15 am 03:15 Clear 54 12 54 12 100 100 N 3 6 30.30 1026 10 16 N/A
3:35 am 03:35 Clear 54 12 54 12 100 100 NNE 3 6 30.30 1026 7 11 N/A
3:55 am 03:55 Partly Cloudy 52 11 52 11 100 100 N 5 7 30.30 1026 7 11 N/A
4:15 am 04:15 Partly Cloudy 52 11 52 11 100 100 N 3 6 30.30 1026 7 11 N/A
4:35 am 04:35 Clear 52 11 52 11 100 100 N 3 6 30.30 1026 10 16 N/A
4:55 am 04:55 Clear 54 12 54 12 100 100 NNE 5 7 30.30 1026 7 11 N/A
5:15 am 05:15 Clear 54 12 54 12 100 100 NNE 6 9 30.30 1026 7 11 N/A
5:35 am 05:35 Clear 54 12 54 12 100 100 NNE 6 9 30.33 1027 7 11 N/A
5:55 am 05:55 Clear 54 12 54 12 100 100 NNE 5 7 30.33 1027 10 16 N/A
6:15 am 06:15 Clear 52 11 52 11 100 100 N N/A 30.33 1027 7 11 N/A
6:35 am 06:35 Clear 52 11 52 11 100 100 N N/A 30.33 1027 7 11 N/A
6:55 am 06:55 Partly Cloudy 52 11 52 11 100 100 N 3 6 30.33 1027 7 11 N/A
7:15 am 07:15 Cloudy with Mist and Fog 52 11 52 11 100 100 N 6 9 30.33 1027 2 3 N/A
7:35 am 07:35 Cloudy with Mist and Fog 52 11 52 11 100 100 N 7 11 30.33 1027 2 3 N/A
7:55 am 07:55 Cloudy with Mist and Fog 54 12 54 12 100 100 N 7 11 30.36 1028 4 6 N/A
8:15 am 08:15 Cloudy with Mist and Fog 54 12 54 12 100 100 N 6 9 30.36 1028 4 6 N/A
8:35 am 08:35 Cloudy with Mist and Fog 54 12 54 12 100 100 NNE 5 7 30.36 1028 5 8 N/A
8:55 am 08:55 Cloudy with Mist and Fog 55 13 55 13 100 100 NE 3 6 30.33 1027 5 8 N/A
9:15 am 09:15 Cloudy with Mist and Fog 55 13 55 13 100 100 NNE 3 6 30.33 1027 5 8 N/A
9:35 am 09:35 Cloudy 57 14 57 14 100 100 NNE 5 7 30.33 1027 7 11 N/A
9:55 am 09:55 Cloudy with Mist and Fog 59 15 59 15 100 100 NNE 6 9 30.33 1027 5 8 N/A
10:15 am 10:15 Cloudy with Mist and Fog 59 15 59 15 100 100 ENE 3 6 30.33 1027 4 6 N/A
10:35 am 10:35 Cloudy with Mist and Fog 59 15 59 15 100 100 NNE 3 6 30.33 1027 3 5 N/A
10:55 am 10:55 Cloudy with Mist and Fog 61 16 59 15 94 94 NNE 6 9 30.33 1027 5 8 N/A
11:15 am 11:15 Cloudy 61 16 59 15 94 94 NNE 7 11 30.33 1027 7 11 N/A
11:35 am 11:35 Cloudy 61 16 59 15 94 94 NNE 6 9 30.33 1027 10 16 N/A
11:55 am 11:55 Cloudy 63 17 59 15 88 88 N N/A 30.33 1027 10 16 N/A
12:15 pm 12:15 Cloudy 63 17 59 15 88 88 N N/A 30.33 1027 10 16 N/A
12:35 pm 12:35 Cloudy 64 18 59 15 83 83 N N/A 30.33 1027 10 16 N/A
12:55 pm 12:55 Cloudy 64 18 59 15 83 83 N N/A 30.33 1027 10 16 N/A
1:15 pm 13:15 Cloudy 66 19 61 16 83 83 N N/A 30.33 1027 10 16 N/A
1:35 pm 13:35 Cloudy 66 19 61 16 83 83 NE 3 6 30.30 1026 10 16 N/A
1:55 pm 13:55 Cloudy 64 18 59 15 83 83 N N/A 30.30 1026 10 16 N/A
2:15 pm 14:15 Cloudy 66 19 61 16 83 83 N N/A 30.30 1026 10 16 N/A
2:35 pm 14:35 Cloudy 66 19 61 16 83 83 N N/A 30.30 1026 10 16 N/A
2:55 pm 14:55 Cloudy 68 20 61 16 78 78 N N/A 30.30 1026 10 16 N/A
3:15 pm 15:15 Cloudy 68 20 61 16 78 78 ENE 7 11 30.30 1026 10 16 N/A
3:35 pm 15:35 Cloudy 68 20 61 16 78 78 NE 6 9 30.30 1026 10 16 N/A
3:55 pm 15:55 Cloudy 70 21 61 16 73 73 N N/A 30.30 1026 10 16 N/A
4:15 pm 16:15 Cloudy 68 20 61 16 78 78 N N/A 30.30 1026 10 16 N/A
4:35 pm 16:35 Mostly Cloudy 68 20 61 16 78 78 N N/A 30.27 1025 10 16 N/A
4:55 pm 16:55 Mostly Cloudy 70 21 61 16 73 73 N N/A 30.30 1026 10 16 N/A
5:15 pm 17:15 Cloudy 70 21 61 16 73 73 N N/A 30.30 1026 10 16 N/A
5:35 pm 17:35 Mostly Cloudy 70 21 61 16 73 73 N N/A 30.27 1025 10 16 N/A
5:55 pm 17:55 Partly Cloudy 68 20 61 16 78 78 NNE 3 6 30.27 1025 10 16 N/A
6:15 pm 18:15 Sunny 68 20 61 16 78 78 N N/A 30.27 1025 10 16 N/A
6:35 pm 18:35 Partly Cloudy 68 20 61 16 78 78 N N/A 30.27 1025 10 16 N/A
6:55 pm 18:55 Partly Cloudy 66 19 61 16 83 83 N N/A 30.27 1025 10 16 N/A
7:15 pm 19:15 Partly Cloudy 64 18 61 16 88 88 N N/A 30.30 1026 10 16 N/A
7:35 pm 19:35 Clear 63 17 61 16 94 94 N N/A 30.30 1026 10 16 N/A
7:55 pm 19:55 Clear 63 17 61 16 94 94 N N/A 30.30 1026 10 16 N/A
8:15 pm 20:15 Clear 61 16 61 16 100 100 N N/A 30.30 1026 10 16 N/A
8:35 pm 20:35 Clear 61 16 61 16 100 100 N N/A 30.30 1026 10 16 N/A
8:55 pm 20:55 Clear 61 16 61 16 100 100 N N/A 30.30 1026 10 16 N/A
9:15 pm 21:15 Clear 59 15 59 15 100 100 N N/A 30.30 1026 10 16 N/A
9:35 pm 21:35 Clear 59 15 59 15 100 100 N N/A 30.30 1026 10 16 N/A
9:55 pm 21:55 Clear 59 15 59 15 100 100 N N/A 30.30 1026 10 16 N/A
10:15 pm 22:15 Clear 57 14 57 14 100 100 WNW 3 6 30.30 1026 10 16 N/A
10:35 pm 22:35 Clear 57 14 57 14 100 100 W 3 6 30.30 1026 10 16 N/A
10:55 pm 22:55 Mostly Cloudy 57 14 57 14 100 100 N N/A 30.30 1026 10 16 N/A
11:15 pm 23:15 Cloudy 57 14 57 14 100 100 N N/A 30.30 1026 10 16 N/A
11:35 pm 23:35 Cloudy 59 15 59 15 100 100 N N/A 30.30 1026 10 16 N/A
11:55 pm 23:55 Cloudy 59 15 59 15 100 100 N N/A 30.30 1026 10 16 N/A

Powered by AerisWeather